When you browse on this site, cookies collect data to enhance your experience and personalize the content and advertising you see.
Visit our Privacy Policy to learn more. By continuing to use the site, you agree to this use of cookies and data.
  • In Hungary
  • List of Countries
  • For 7 days
  • Water Temperature
  • Weather Map
  • News
  • Weather Widgets
  • user-avatar
    Login

    Hourly Weather Segovia

    Today, 2 April, Thursday

    Time Temperature Precipitation Wind Pressure Humidity
    00:00 +23°C° 0.8 mm 1 mps 704 mmHg 97%
    01:00 +23°C° 0.8 mm 1 mps 704 mmHg 98%
    02:00 +23°C° 0.9 mm 1 mps 704 mmHg 98%
    03:00 +23°C° 0.9 mm 1 mps 703 mmHg 98%
    04:00 +22°C° 0.9 mm 1 mps 703 mmHg 98%
    05:00 +23°C° 0.1 mm 1 mps 704 mmHg 98%
    06:00 +23°C° 0.1 mm 1 mps 704 mmHg 98%
    07:00 +21°C° 0.1 mm 0 mps 705 mmHg 98%
    08:00 +24°C° 0.6 mm 1 mps 705 mmHg 96%
    09:00 +25°C° 0.6 mm 1 mps 705 mmHg 95%
    10:00 +25°C° 0.6 mm 1 mps 705 mmHg 93%
    11:00 +27°C° 1.3 mm 1 mps 705 mmHg 88%
    12:00 +28°C° 1.3 mm 1 mps 704 mmHg 82%
    13:00 +29°C° 1.3 mm 1 mps 704 mmHg 77%
    14:00 +29°C° 1.5 mm 1 mps 703 mmHg 80%
    15:00 +28°C° 1.5 mm 1 mps 702 mmHg 83%
    16:00 +28°C° 1.5 mm 1 mps 702 mmHg 86%
    17:00 +27°C° 1.8 mm 1 mps 702 mmHg 89%
    18:00 +25°C° 1.8 mm 1 mps 702 mmHg 93%
    19:00 +24°C° 1.8 mm 1 mps 703 mmHg 96%
    20:00 +24°C° 1 mm 1 mps 703 mmHg 97%
    21:00 +23°C° 1 mm 1 mps 704 mmHg 97%
    22:00 +23°C° 1 mm 1 mps 705 mmHg 98%
    23:00 +23°C° 0.7 mm 1 mps 704 mmHg 98%

    Tomorrow, 3 April, Friday

    Time Temperature Precipitation Wind Pressure Humidity
    00:00 +23°C° 0.7 mm 1 mps 704 mmHg 98%
    01:00 +23°C° 0.7 mm 2 mps 703 mmHg 98%
    02:00 +23°C° 0.5 mm 1 mps 703 mmHg 98%
    03:00 +22°C° 0.5 mm 1 mps 703 mmHg 98%
    04:00 +22°C° 0.5 mm 1 mps 703 mmHg 98%
    05:00 +22°C° 0.2 mm 1 mps 703 mmHg 98%
    06:00 +23°C° 0.2 mm 1 mps 704 mmHg 98%
    07:00 +23°C° 0.2 mm 1 mps 704 mmHg 97%
    08:00 +23°C° 0.1 mm 1 mps 705 mmHg 95%
    09:00 +24°C° 0.1 mm 1 mps 705 mmHg 93%
    10:00 +23°C° 0.1 mm 0 mps 705 mmHg 91%
    11:00 +26°C° 0.5 mm 1 mps 704 mmHg 83%
    12:00 +28°C° 0.5 mm 1 mps 703 mmHg 76%
    13:00 +30°C° 0.5 mm 1 mps 703 mmHg 68%
    14:00 +30°C° 0.6 mm 1 mps 702 mmHg 72%
    15:00 +29°C° 0.6 mm 1 mps 702 mmHg 75%
    16:00 +29°C° 0.6 mm 1 mps 701 mmHg 79%
    17:00 +27°C° 0.7 mm 1 mps 701 mmHg 84%
    18:00 +26°C° 0.7 mm 1 mps 701 mmHg 89%
    19:00 +24°C° 0.7 mm 1 mps 702 mmHg 94%
    20:00 +24°C° 0.9 mm 1 mps 702 mmHg 95%
    21:00 +24°C° 0.9 mm 1 mps 703 mmHg 96%
    22:00 +23°C° 0.9 mm 1 mps 704 mmHg 97%
    23:00 +23°C° 1 mm 1 mps 703 mmHg 97%

    Day after tomorrow, 4 April, Saturday

    Time Temperature Precipitation Wind Pressure Humidity
    00:00 +23°C° 1 mm 1 mps 703 mmHg 97%
    01:00 +23°C° 1 mm 2 mps 703 mmHg 98%
    02:00 +23°C° 0.4 mm 1 mps 702 mmHg 98%
    03:00 +23°C° 0.4 mm 1 mps 702 mmHg 98%
    04:00 +23°C° 0.4 mm 1 mps 702 mmHg 98%
    05:00 +23°C° 0.6 mm 1 mps 702 mmHg 98%
    06:00 +23°C° 0.6 mm 1 mps 703 mmHg 98%
    07:00 +23°C° 0.6 mm 1 mps 703 mmHg 98%
    08:00 +24°C° 0.4 mm 1 mps 704 mmHg 96%
    09:00 +24°C° 0.4 mm 1 mps 704 mmHg 94%
    10:00 +25°C° 0.4 mm 1 mps 704 mmHg 92%
    11:00 +27°C° 0.2 mm 1 mps 703 mmHg 84%
    12:00 +28°C° 0.2 mm 1 mps 703 mmHg 75%
    13:00 +30°C° 0.2 mm 1 mps 702 mmHg 66%
    14:00 +30°C° 0.3 mm 1 mps 702 mmHg 68%
    15:00 +29°C° 0.3 mm 1 mps 701 mmHg 71%
    16:00 +29°C° 0.3 mm 1 mps 701 mmHg 73%
    17:00 +28°C° 0.6 mm 1 mps 701 mmHg 80%
    18:00 +26°C° 0.6 mm 1 mps 701 mmHg 87%
    19:00 +23°C° 0.6 mm 0 mps 702 mmHg 94%
    20:00 +24°C° 0.4 mm 1 mps 702 mmHg 95%
    21:00 +24°C° 0.4 mm 1 mps 702 mmHg 96%
    22:00 +24°C° 0.4 mm 1 mps 703 mmHg 96%
    23:00 +23°C° 0.1 mm 1 mps 703 mmHg 97%

    5 April, Sunday

    Time Temperature Precipitation Wind Pressure Humidity
    00:00 +23°C° 0.1 mm 1 mps 702 mmHg 97%
    01:00 +23°C° 0.1 mm 1 mps 702 mmHg 97%
    02:00 +23°C° 0 mm 1 mps 702 mmHg 98%
    03:00 +23°C° 0 mm 1 mps 702 mmHg 98%
    04:00 +23°C° 0 mm 1 mps 702 mmHg 98%
    05:00 +21°C° 0 mm 0 mps 702 mmHg 97%
    06:00 +21°C° 0 mm 0 mps 703 mmHg 97%
    07:00 +22°C° 0 mm 0 mps 703 mmHg 96%
    08:00 +24°C° 0.4 mm 0 mps 704 mmHg 89%
    09:00 +26°C° 0.4 mm 0 mps 704 mmHg 81%
    10:00 +27°C° 0.4 mm 0 mps 704 mmHg 74%
    11:00 +29°C° 0.2 mm 0 mps 704 mmHg 68%
    12:00 +30°C° 0.2 mm 0 mps 703 mmHg 62%
    13:00 +33°C° 0.2 mm 1 mps 702 mmHg 55%
    14:00 +32°C° 0.6 mm 1 mps 701 mmHg 63%
    15:00 +31°C° 0.6 mm 1 mps 701 mmHg 71%
    16:00 +30°C° 0.6 mm 1 mps 700 mmHg 78%
    17:00 +28°C° 0.8 mm 1 mps 701 mmHg 84%
    18:00 +27°C° 0.8 mm 1 mps 701 mmHg 89%
    19:00 +23°C° 0.8 mm 0 mps 701 mmHg 95%
    20:00 +23°C° 0.8 mm 0 mps 702 mmHg 95%
    21:00 +24°C° 0.8 mm 1 mps 702 mmHg 96%
    22:00 +24°C° 0.8 mm 1 mps 703 mmHg 97%
    23:00 +24°C° 0.9 mm 1 mps 703 mmHg 97%

    6 April, Monday

    Time Temperature Precipitation Wind Pressure Humidity
    00:00 +24°C° 0.9 mm 1 mps 703 mmHg 97%
    01:00 +24°C° 0.9 mm 1 mps 702 mmHg 97%
    02:00 +23°C° 0.5 mm 1 mps 702 mmHg 98%
    03:00 +23°C° 0.5 mm 1 mps 702 mmHg 98%
    04:00 +23°C° 0.5 mm 1 mps 702 mmHg 98%
    05:00 +24°C° 0.4 mm 1 mps 703 mmHg 98%
    06:00 +22°C° 0.4 mm 0 mps 703 mmHg 97%
    07:00 +22°C° 0.4 mm 0 mps 704 mmHg 97%
    08:00 +23°C° 0.3 mm 0 mps 704 mmHg 91%
    09:00 +25°C° 0.3 mm 0 mps 705 mmHg 86%
    10:00 +26°C° 0.3 mm 0 mps 705 mmHg 80%
    11:00 +28°C° 0.2 mm 0 mps 704 mmHg 73%
    12:00 +31°C° 0.2 mm 1 mps 704 mmHg 67%
    13:00 +33°C° 0.2 mm 1 mps 703 mmHg 60%
    14:00 +32°C° 0.1 mm 1 mps 702 mmHg 63%
    15:00 +32°C° 0.1 mm 1 mps 702 mmHg 65%
    16:00 +31°C° 0.1 mm 1 mps 701 mmHg 67%
    17:00 +29°C° 0.2 mm 1 mps 701 mmHg 75%
    18:00 +28°C° 0.2 mm 1 mps 702 mmHg 83%
    19:00 +24°C° 0.2 mm 0 mps 702 mmHg 91%
    20:00 +23°C° 0.4 mm 0 mps 702 mmHg 92%
    21:00 +23°C° 0.4 mm 0 mps 703 mmHg 93%
    22:00 +23°C° 0.4 mm 0 mps 703 mmHg 94%
    23:00 +24°C° 0.4 mm 1 mps 703 mmHg 95%

    7 April, Tuesday

    Time Temperature Precipitation Wind Pressure Humidity
    00:00 +24°C° 0.4 mm 1 mps 703 mmHg 95%
    01:00 +24°C° 0.4 mm 1 mps 703 mmHg 95%
    02:00 +24°C° 3 mm 1 mps 703 mmHg 96%
    03:00 +24°C° 3 mm 1 mps 703 mmHg 97%
    04:00 +24°C° 3 mm 1 mps 703 mmHg 98%
    05:00 +24°C° 0.6 mm 1 mps 703 mmHg 98%
    06:00 +24°C° 0.6 mm 1 mps 704 mmHg 98%
    07:00 +22°C° 0.6 mm 0 mps 704 mmHg 98%
    08:00 +24°C° 0.6 mm 0 mps 704 mmHg 91%
    09:00 +26°C° 0.6 mm 0 mps 705 mmHg 84%
    10:00 +28°C° 0.6 mm 0 mps 705 mmHg 77%
    11:00 +31°C° 0.4 mm 1 mps 704 mmHg 72%
    12:00 +32°C° 0.4 mm 1 mps 704 mmHg 67%
    13:00 +33°C° 0.4 mm 1 mps 703 mmHg 61%
    14:00 +32°C° 0.7 mm 1 mps 702 mmHg 67%
    15:00 +31°C° 0.7 mm 1 mps 702 mmHg 73%
    16:00 +30°C° 0.7 mm 1 mps 701 mmHg 79%
    17:00 +29°C° 0.6 mm 1 mps 701 mmHg 84%
    18:00 +27°C° 0.6 mm 1 mps 702 mmHg 89%
    19:00 +25°C° 0.6 mm 1 mps 702 mmHg 94%
    20:00 +25°C° 0.3 mm 1 mps 703 mmHg 94%
    21:00 +25°C° 0.3 mm 1 mps 703 mmHg 95%
    22:00 +24°C° 0.3 mm 1 mps 703 mmHg 95%
    23:00 +24°C° 1.1 mm 1 mps 703 mmHg 96%
    Show more